Regional Weather Roundup
Issued by NWS

Home | Current Version | Previous Version | Graphics & Text | Print | Product List | Glossary Off
Versions: 1 2 3 4 5 6 7 8 9 10 11 12 13 14 15 16 17 18 19 20 21 22 23 24 25 26 27 28 29 30 31 32 33 34 35 36 37 38 39 40 41 42 43 44 45 46 47 48 49 50

000
ASUS43 KMKX 150321
RWRWI

WISCONSIN REGIONAL WEATHER ROUNDUP
NATIONAL WEATHER SERVICE MILWAUKEE/SULLIVAN WI
1000 PM CDT SUN SEP 14 2014

NOTE: "FAIR" INDICATES FEW OR NO CLOUDS BELOW 12,000 FEET WITH NO
SIGNIFICANT WEATHER AND/OR OBSTRUCTIONS TO VISIBILITY.

WIZ001-002-006>008-014>016-023>028-150400-
NORTHWEST WISCONSIN

CITY           SKY/WX    TMP DP  RH WIND       PRES   REMARKS
SUPERIOR ARPT  CLEAR     42  41  98 SW3       30.10S
ASHLAND        MOCLDY    46  43  89 W3        30.10S
HAYWARD        CLEAR     43  41  93 CALM      30.10F
SIREN          PTCLDY    45  43  93 CALM      30.12R
RICE LAKE      MOCLDY    48  45  90 CALM      30.13R
LADYSMITH      MOCLDY    51  44  78 CALM      30.12S
EAU CLAIRE     CLOUDY    51  43  74 SW3       30.11R
MENOMONIE      CLOUDY    53  44  69 SW5       30.12R
NEW RICHMOND   CLOUDY    50  44  79 W5        30.13R
OSCEOLA        CLOUDY    49  49  97 CALM      30.15R
$$

WIZ003>005-009-010-017-018-150400-
NORTH CENTRAL WISCONSIN

CITY           SKY/WX    TMP DP  RH WIND       PRES   REMARKS
WOODRUFF       PTCLDY    45  42  91 CALM      30.08F
RHINELANDER    PTCLDY    45  40  82 W3        30.10R
EAGLE RIVER    PTCLDY    43  42  97 CALM      30.08S
LAND O LAKES   PTCLDY    45  41  86 NW3       30.09S
PHILLIPS       PTCLDY    43  42  96 CALM      30.09F
TOMAHAWK       MOCLDY    42  41  95 CALM      30.11S
MEDFORD        CLOUDY    49  43  82 CALM      30.10S
MERRILL        MOCLDY    47  44  90 CALM      30.10S
$$

WIZ029-030-035-036-043>047-150400-
CENTRAL WISCONSIN

CITY           SKY/WX    TMP DP  RH WIND       PRES   REMARKS
WAUSAU         MOCLDY    54  44  69 NW5       30.08F
MOSINEE        MOCLDY    52  43  71 NW7       30.11S
MARSHFIELD     CLOUDY    53  43  68 NW6       30.10S
STEVENS POINT  MOCLDY    55  46  69 CALM      30.10F
WAUPACA        MOCLDY    59  51  74 CALM      30.11S
WAUTOMA        LGT RAIN  57  52  82 CALM      30.12R
WISC RAPIDS    MOCLDY    55  51  86 CALM      30.11S
CAMP DOUGLAS   CLOUDY    56  56  99 CALM      30.11S
$$

WIZ011>013-019>022-031-037>040-048>050-150400-
NORTHEAST WISCONSIN

CITY           SKY/WX    TMP DP  RH WIND       PRES   REMARKS
ANTIGO         MOCLDY    50  43  77 W6        30.09S
STURGEON BAY   PTCLDY    54  46  76 SW7       30.09S
GREEN BAY      MOCLDY    56  50  80 W5        30.10R
MANITOWOC      MOCLDY    58  48  69 SW9       30.11S
APPLETON       MOCLDY    57  48  72 SW6       30.11R
CLINTONVILLE   CLOUDY    55  46  71 SW3       30.09S
OSHKOSH        CLOUDY    57  49  74 SW9       30.11R
$$

WIZ032>034-041-042-053>061-150400-
SOUTHWEST WISCONSIN

CITY           SKY/WX    TMP DP  RH WIND       PRES   REMARKS
LA CROSSE      CLOUDY    60  52  74 NW6       30.12R
SPARTA         CLOUDY    56  52  85 CALM      30.13R
VIROQUA        FAIR      56  50  81 SW6       30.13S
BOSCOBEL       PTCLDY    53  49  86 SW3       30.15R
PRAIRIE DU CHI PTCLDY    53  49  88 CALM      30.14R
PLATTEVILLE    FAIR      54  49  82 CALM      30.17R
$$

WIZ056-057-062-063-064-067-068-150400-
SOUTH CENTRAL WISCONSIN

CITY           SKY/WX    TMP DP  RH WIND       PRES   REMARKS
BARABOO/DELLS  PTCLDY    56  47  69 SW8       30.12S
LONE ROCK      PTCLDY    57  48  72 E3        30.14S
WATERTOWN      MOCLDY    54  48  81 SW5       30.14S
MADISON        MOCLDY    59  47  64 S5        30.15R
MIDDLETON      FAIR      57  46  67 SW6       30.15R
MONROE         PTCLDY    54  46  76 SW8       30.16S
JANESVILLE     PTCLDY    54  46  76 CALM      30.16S
$$

WIZ051-052-058>065-066-070>072-150400-
SOUTHEAST WISCONSIN

CITY           SKY/WX    TMP DP  RH WIND       PRES   REMARKS
MILWAUKEE      MOCLDY    56  46  69 S6        30.16S
WAUKESHA       PTCLDY    52  45  76 CALM      30.16F
MILWAUKEE/TIMM PTCLDY    55  43  62 SW6       30.16S
RACINE         PTCLDY    53  48  83 SW5       30.18S
BURLINGTON     PTCLDY    47  46  95 SW3       30.17S
KENOSHA        PTCLDY    53  47  79 S5        30.17S
FOND DU LAC    MOCLDY    57  47  69 SW9       30.12S
SHEBOYGAN      MOCLDY    54  47  77 SW7       30.13R
WEST BEND      MOCLDY    52  45  76 S6        30.14R
JUNEAU         MOCLDY    51  46  84 S6        30.15S
$$

LSZ147-162-150400-
LAKE SUPERIOR

STATION/POSITION TIME  TEMP    WIND        PRES    WAVE
                       AIR SEA DIR/SP/G            HT/PER
                 (UTC) (F)     (DEG/KT/KT) (MB)    (FT/S)
W MID LAKE BUOY  0250   50 47  270/ 14/ 16 1017.5R   2/ 4
DEVILS ISLAND    0300   53     270/ 11/ 12 1018.7R
PORT WING        0200   56     270/  8/ 10 1019.0R
SAXON HARBOR     0200   51     200/  4/  7 1018.6R
$$

LMZ867-665-643>646-150400-
LAKE MICHIGAN

STATION/POSITION TIME  TEMP    WIND        PRES    WAVE
                       AIR SEA DIR/SP/G            HT/PER
                 (UTC) (F)     (DEG/KT/KT) (MB)    (FT/S)
N MID LAKE BUOY  0250   58 58  220/ 16/ 17 1017.9R   6/ 7
NORTHPORT PIER   0300   55     190/  3/  9 1017.9F
KEWAUNEE LAKESHO 0300   57     220/  7/  9 1018.0F
SHEBOYGAN LAKESH 0300   58 51  210/ 11/ 12 1020.5R
PORT WASHINGTON  0240   57     240/  5/  8 1021.0S
MILWAUKEE LAKESH 0300   59     240/  6/  7   N/A
S MID LAKE BUOY  0250   63 65  200/ 12/ 14 1021.9R   1/ 3
KENOSHA   LAKESH 0300   58     220/  6/  8 1021.3S
$$

TC  - TEMPERATURE IN CELSIUS
VSB - VISIBILITY IN STATUTE MILES
WCI - WIND CHILL INDEX
HX  - HEAT INDEX




USA.gov is the U.S. government's official web portal to all federal, state and local government web resources and services.